Location: Maccacari
(45.1333°N, 11.1333°E)
Time: 13:03:37
(UTC+00:00)

SR - Pass Details

Date: 22 June 2021
Orbit: 577 x 878 km, 66.7° (Epoch: 24 July)

Event Time Altitude Azimuth Distance (km) Brightness Sun altitude
Rises 23:29:47 0° 328° (NNW) 3,300 ? -21.4°
Reaches altitude 10° 23:32:19 10° 330° (NNW) 2,321 ? -21.4°
Maximum altitude 23:37:37 75° 56° (NE) 751 ? -21.3°
Enters shadow 23:39:33 37° 133° (SE) 1,087 ? -21.3°
